SPACEMOBILE-002

Last updated on Mon Sep 21 2026 00:02:09 GMT+0000 (Coordinated Universal Time)

1 61048U 24163D 26263.48427423 .00013997 00000+0 64726-3 0 9994 2 61048 52.9748 231.0394 0007363 47.8941 312.2678 15.20411504112264
UTC large
Height (km)
Speed (km/s)
/
Latitude / Longitude
Inclination (degrees)
Orbital Period (minutes)
Azimuth
Elevation
Range (km)
Doppler Factor

Next 0 passes for location: London (51.5072 / 0.1276)

No passes found over London.
SPACEMOBILE-002